カタログに戻る

ATLAS 5 CENTAUR DEB

LostHEO
NORAD 49362·DEBRIS·🇺🇸 United States

打ち上げ Oct 17, 2018 から Cape Canaveral Space Force Station

Loading…

次のパス (今後24時間)

TLE

古いSource: Space-Track

元期: Mar 17, 2026, 13:38 UTC

1 49362U 18079FP  26076.56865517 -.00000121  00000-0  00000-0 0  9998
2 49362  13.4521  47.2365 4853402 285.8521  27.3634  1.75762281 29191

AllMySatでATLAS 5 CENTAUR DEBをリアルタイム追跡

Download on the App Store